Petersburg, AK

1:18 AM AKST on November 21, 2017 (GMT -0900)
Johnson Petersburg

Weather History for PAPG - January, 2013

Change the Weather History Date:

Wednesday, January 30, 2013

  Actual Average Record
Temperature  
Mean Temperature 30 °F -  
Max Temperature 33 °F 34 °F 53 °F (2000)
Min Temperature 28 °F 26 °F 7 °F (1990)
Degree Days  
Heating Degree Days 34    
Moisture  
Dew Point 29 °F    
Average Humidity 91    
Maximum Humidity 100    
Minimum Humidity 86    
Precipitation  
Precipitation 0.27 in - - ()
Sea Level Pressure  
Sea Level Pressure 30.11 in    
Wind  
Wind Speed 0 mph (West)    
Max Wind Speed 6 mph    
Max Gust Speed -    
Visibility 7 miles    
Events      
Averages and records for this station are not official NWS values.
T = Trace of Precipitation, MM = Missing Value Source: NWS Daily Summary

Daily Weather History Graph

Daily Weather History Graph

Search for Another Location

Airport or City:

Trip Planner

Search our weather history database for the weather conditions in past years. The results will help you decide how hot, cold, wet, or windy it might be!

Date:

Astronomy

Jan. 30, 2013 Rise Set
Actual Time 7:52 AM AKST 4:18 PM AKST
Civil Twilight 7:10 AM AKST 5:00 PM AKST
Nautical Twilight 6:24 AM AKST 5:46 PM AKST
Astronomical Twilight 5:39 AM AKST 6:31 PM AKST
Moon 9:26 PM AKST (1/30) 8:29 AM AKST (1/30)
Length of Visible Light 9h 50m
Length of Day
8h 25m
Waning Gibbous, 86% of the Moon is Illuminated
Jan 30
Waning Gibbous
Feb 3
Last Quarter
Feb 9
New
Feb 17
First Quarter
Feb 25
Full

Hourly Weather History & Observations

Time (AKST) Temp. Windchill Dew Point Humidity Pressure Visibility Wind Dir Wind Speed Gust Speed Precip Events Conditions
12:16 AM 28.4 °F - 26.6 °F 93% 30.14 in 2.5 mi Calm Calm - N/A   Overcast
12:36 AM 28.4 °F - 26.6 °F 93% 30.14 in 2.0 mi Calm Calm - 0.01 in   Overcast
12:56 AM 28.4 °F - 26.6 °F 93% 30.15 in 2.0 mi Calm Calm - 0.01 in   Overcast
1:16 AM 28.4 °F - 26.6 °F 93% 30.15 in 2.5 mi Calm Calm - N/A   Overcast
1:36 AM 28.4 °F - 26.6 °F 93% 30.16 in 2.5 mi Calm Calm - 0.01 in   Overcast
1:56 AM 28.4 °F - 26.6 °F 93% 30.17 in 2.0 mi Calm Calm - 0.01 in   Overcast
2:16 AM 28.4 °F - 26.6 °F 93% 30.17 in 2.5 mi Calm Calm - N/A   Overcast
2:36 AM 28.4 °F - 26.6 °F 93% 30.17 in 3.0 mi Calm Calm - N/A   Overcast
2:56 AM 28.4 °F - 26.6 °F 93% 30.18 in 7.0 mi Calm Calm - 0.01 in   Overcast
3:16 AM 30.2 °F - 26.6 °F 86% 30.18 in 10.0 mi Calm Calm - N/A   Overcast
3:36 AM 30.2 °F - 26.6 °F 86% 30.19 in 10.0 mi Calm Calm - 0.01 in   Overcast
3:56 AM 30.2 °F - 26.6 °F 86% 30.18 in 10.0 mi Calm Calm - 0.01 in   Overcast
4:16 AM 30.2 °F - 28.4 °F 93% 30.19 in 10.0 mi Calm Calm - N/A   Overcast
4:36 AM 30.2 °F - 28.4 °F 93% 30.19 in 10.0 mi Calm Calm - N/A   Overcast
4:56 AM 30.2 °F - 28.4 °F 93% 30.19 in 10.0 mi Calm Calm - N/A   Overcast
5:16 AM 30.2 °F - 26.6 °F 86% 30.19 in 10.0 mi Calm Calm - 0.01 in   Overcast
5:36 AM 30.2 °F - 28.4 °F 93% 30.19 in 10.0 mi Calm Calm - 0.01 in   Overcast
5:56 AM 30.2 °F - 28.4 °F 93% 30.19 in 10.0 mi Calm Calm - 0.01 in   Overcast
6:16 AM 30.2 °F - 28.4 °F 93% 30.20 in 10.0 mi Calm Calm - 0.01 in   Overcast
6:36 AM 30.2 °F - 28.4 °F 93% 30.20 in 10.0 mi Calm Calm - 0.01 in   Overcast
6:56 AM 30.2 °F - 28.4 °F 93% 30.20 in 10.0 mi Calm Calm - 0.01 in   Overcast
7:16 AM 30.2 °F - 28.4 °F 93% 30.19 in 10.0 mi Calm Calm - N/A   Overcast
7:36 AM 30.2 °F - 28.4 °F 93% 30.20 in 10.0 mi Calm Calm - 0.01 in   Overcast
7:56 AM 30.2 °F - 28.4 °F 93% 30.20 in 3.0 mi Calm Calm - 0.01 in   Overcast
8:16 AM 30.2 °F - 28.4 °F 93% 30.20 in 3.0 mi Calm Calm - N/A   Overcast
8:36 AM 30.2 °F - 30.2 °F 100% 30.20 in 3.0 mi Calm Calm - N/A   Overcast
8:56 AM 30.2 °F - 28.4 °F 93% 30.20 in 2.5 mi Calm Calm - 0.01 in   Overcast
9:16 AM 30.2 °F - 28.4 °F 93% 30.20 in 2.5 mi Calm Calm - N/A   Overcast
9:36 AM 32.0 °F - 30.2 °F 93% 30.20 in 2.5 mi Calm Calm - N/A   Overcast
9:56 AM 32.0 °F - 30.2 °F 93% 30.21 in 2.5 mi Calm Calm - 0.01 in   Overcast
10:16 AM 32.0 °F - 30.2 °F 93% 30.20 in 2.5 mi Calm Calm - 0.01 in   Overcast
10:36 AM 32.0 °F - 30.2 °F 93% 30.20 in 2.5 mi Calm Calm - 0.01 in   Overcast
10:56 AM 32.0 °F - 30.2 °F 93% 30.19 in 2.5 mi Calm Calm - 0.01 in   Overcast
11:16 AM 32.0 °F - 30.2 °F 93% 30.19 in 2.5 mi Calm Calm - 0.01 in   Overcast
11:36 AM 32.0 °F - 30.2 °F 93% 30.19 in 2.5 mi Calm Calm - 0.01 in   Overcast
11:56 AM 32.0 °F - 30.2 °F 93% 30.18 in 2.5 mi Calm Calm - 0.02 in   Overcast
12:16 PM 33.8 °F - 30.2 °F 87% 30.17 in 7.0 mi Calm Calm - N/A   Overcast
12:36 PM 33.8 °F - 30.2 °F 87% 30.17 in 7.0 mi Calm Calm - N/A   Overcast
12:56 PM 33.8 °F - 30.2 °F 87% 30.17 in 7.0 mi Calm Calm - N/A   Overcast
1:16 PM 33.8 °F - 30.2 °F 87% 30.15 in 7.0 mi Calm Calm - N/A   Overcast
1:36 PM 33.8 °F - 30.2 °F 87% 30.14 in 7.0 mi Calm Calm - N/A   Overcast
1:56 PM 33.8 °F - 30.2 °F 87% 30.14 in 7.0 mi Calm Calm - N/A   Overcast
2:16 PM 32.0 °F 28.7 °F 30.2 °F 93% 30.13 in 7.0 mi WNW 3.5 mph - N/A   Overcast
2:36 PM 32.0 °F - 30.2 °F 93% 30.12 in 7.0 mi Calm Calm - N/A   Overcast
2:56 PM 32.0 °F 28.7 °F 30.2 °F 93% 30.12 in 5.0 mi West 3.5 mph - N/A   Overcast
3:16 PM 32.0 °F - 30.2 °F 93% 30.11 in 5.0 mi Calm Calm - N/A   Overcast
3:36 PM 32.0 °F - 30.2 °F 93% 30.10 in 5.0 mi Calm Calm - N/A   Overcast
3:56 PM 32.0 °F - 30.2 °F 93% 30.09 in 5.0 mi Calm Calm - N/A   Overcast
4:16 PM 32.0 °F - 30.2 °F 93% 30.08 in 5.0 mi Calm Calm - N/A   Overcast
4:36 PM 32.0 °F - 30.2 °F 93% 30.07 in 5.0 mi Calm Calm - N/A   Overcast
4:56 PM 32.0 °F - 30.2 °F 93% 30.07 in 10.0 mi Calm Calm - N/A   Overcast
5:16 PM 32.0 °F - 28.4 °F 87% 30.06 in 10.0 mi Calm Calm - 0.01 in   Overcast
5:36 PM 32.0 °F - 30.2 °F 93% 30.05 in 10.0 mi Calm Calm - 0.01 in   Overcast
5:56 PM 32.0 °F 28.7 °F 30.2 °F 93% 30.03 in 10.0 mi WNW 3.5 mph - 0.01 in   Overcast
6:16 PM 32.0 °F - 28.4 °F 87% 30.02 in 10.0 mi Calm Calm - N/A   Overcast
6:36 PM 32.0 °F - 30.2 °F 93% 30.01 in 10.0 mi Calm Calm - N/A   Overcast
6:56 PM 32.0 °F 27.5 °F 30.2 °F 93% 30.00 in 10.0 mi West 4.6 mph - 0.01 in   Overcast
7:16 PM 32.0 °F 27.5 °F 30.2 °F 93% 29.99 in 10.0 mi WSW 4.6 mph - N/A   Overcast
7:36 PM 32.0 °F 28.7 °F 30.2 °F 93% 29.98 in 10.0 mi WSW 3.5 mph - N/A   Overcast
7:56 PM 32.0 °F 28.7 °F 30.2 °F 93% 29.97 in 10.0 mi WSW 3.5 mph - 0.01 in   Overcast
8:16 PM 32.0 °F - 30.2 °F 93% 29.96 in 10.0 mi Calm Calm - N/A   Overcast
8:36 PM 33.8 °F - 30.2 °F 87% 29.95 in 10.0 mi Calm Calm - 0.01 in   Overcast
8:56 PM 32.0 °F 28.7 °F 30.2 °F 93% 29.94 in 10.0 mi West 3.5 mph - 0.01 in   Overcast
9:16 PM 33.8 °F 29.6 °F 30.2 °F 87% 29.93 in 10.0 mi SW 4.6 mph - N/A   Overcast
9:36 PM 32.0 °F 26.4 °F 30.2 °F 93% 29.92 in 10.0 mi WSW 5.8 mph - 0.01 in   Overcast
9:56 PM 32.0 °F 27.5 °F 30.2 °F 93% 29.92 in 7.0 mi WSW 4.6 mph - 0.01 in   Overcast
10:16 PM 32.0 °F 27.5 °F 30.2 °F 93% 29.91 in 5.0 mi West 4.6 mph - 0.01 in   Overcast
10:36 PM 33.8 °F 28.6 °F 30.2 °F 87% 29.90 in 5.0 mi West 5.8 mph - 0.04 in   Overcast
10:56 PM 33.8 °F 28.6 °F 30.2 °F 87% 29.89 in 8.0 mi WSW 5.8 mph - 0.06 in   Overcast
11:16 PM 33.8 °F - 30.2 °F 87% 29.89 in 8.0 mi Calm Calm - 0.01 in   Overcast
11:36 PM 33.8 °F 30.8 °F 30.2 °F 87% 29.88 in 5.0 mi West 3.5 mph - 0.03 in   Overcast
11:56 PM 33.8 °F - 30.2 °F 87% 29.88 in 7.0 mi Calm Calm - 0.04 in   Overcast